This is the latest recevied weather packets stored in our database for station/object PD0SBH-13. If no packets are shown the sender has not sent any weather packets the latest 10 day(s).
| Time | Temp. | Humidity | Pressure | Rain* | Wind** | Luminosity | Snow |
|---|---|---|---|---|---|---|---|
| 1777680324 | 12.78° C | 51% | 1015.9 hPa | 0 mm | - | - | - |
| 1777679719 | 13.33° C | 51% | 1016.1 hPa | 0 mm | - | - | - |
| 1777679123 | 13.33° C | 51% | 1016.2 hPa | 0 mm | - | - | - |
| 1777678517 | 13.33° C | 51% | 1016.4 hPa | 0 mm | - | - | - |
| 1777677922 | 13.89° C | 52% | 1016.4 hPa | 0 mm | - | - | - |
| 1777677317 | 13.89° C | 52% | 1016.4 hPa | 0 mm | - | - | - |
| 1777676724 | 13.89° C | 52% | 1016.4 hPa | 0 mm | - | - | - |
| 1777676117 | 14.44° C | 51% | 1016.4 hPa | 0 mm | - | - | - |
| 1777675523 | 14.44° C | 51% | 1016.4 hPa | 0 mm | - | - | - |
| 1777674918 | 15° C | 51% | 1016.6 hPa | 0 mm | - | - | - |
| 1777674325 | 15° C | 50% | 1016.6 hPa | 0 mm | - | - | - |
| 1777673717 | 15.56° C | 49% | 1016.3 hPa | 0 mm | - | - | - |
| 1777673121 | 15.56° C | 49% | 1016.3 hPa | 0 mm | - | - | - |
| 1777672523 | 16.11° C | 48% | 1016.5 hPa | 0 mm | - | - | - |
| 1777671918 | 16.11° C | 48% | 1016.5 hPa | 0 mm | - | - | - |
| 1777671323 | 16.67° C | 46% | 1016.7 hPa | 0 mm | - | - | - |
| 1777670718 | 16.67° C | 46% | 1016.7 hPa | 0 mm | - | - | - |
| 1777670122 | 17.22° C | 45% | 1016.6 hPa | 0 mm | - | - | - |
| 1777669518 | 17.22° C | 44% | 1016.6 hPa | 0 mm | - | - | - |
| 1777668923 | 17.78° C | 43% | 1016.5 hPa | 0 mm | - | - | - |
| 1777668318 | 17.78° C | 42% | 1016.6 hPa | 0 mm | - | - | - |
| 1777667723 | 18.33° C | 41% | 1016.8 hPa | 0 mm | - | - | - |
| 1777667118 | 18.89° C | 40% | 1016.8 hPa | 0 mm | - | - | - |
| 1777666523 | 19.44° C | 39% | 1016.7 hPa | 0 mm | - | - | - |
| 1777665919 | 19.44° C | 38% | 1016.7 hPa | 0 mm | - | - | - |
* Rain latest hour (hover to see other rain measurements)
** Current wind speed in m/s (hover to see current wind gust speed)